Regional Weather Roundup
Issued by NWS

Home | Current Version | Previous Version | Text Only | Print | Product List | Glossary Off
Versions: 1 2 3 4 5 6 7 8 9 10 11 12 13 14 15 16 17 18 19 20 21 22 23 24 25 26 27 28 29 30 31 32 33 34 35 36 37 38 39 40 41 42 43 44 45 46 47 48 49 50

000
ASUS45 KBOI 010110
RWRID
WEATHER ROUNDUP FOR IDAHO
NATIONAL WEATHER SERVICE BOISE ID
700 PM MDT TUE MAR 31 2015

NOTE: "FAIR" INDICATES FEW OR NO CLOUDS BELOW 12000 FEET
WITH NO SIGNIFICANT WEATHER AND/OR OBSTRUCTIONS TO VISIBILITY

IDZ012-014-010200-
SOUTHWEST IDAHO


CITY           SKY/WX    TMP DP  RH WIND       PRES   REMARKS
BOISE          CLOUDY    51  29  42 NW22G31   29.97R
CALDWELL       PTSUNNY   52  28  40 NW16      30.01R
MOUNTAIN HOME  PTSUNNY   52  34  50 NW30G38   29.91R
$$

IDZ016-017-010200-
SOUTHCENTRAL IDAHO


CITY           SKY/WX    TMP DP  RH WIND       PRES   REMARKS
BURLEY         FAIR      64  32  30 W16G32    29.75R
JEROME         FAIR      59  30  33 W32G40    29.81R
TWIN FALLS     FAIR      60  31  33 W30G41    29.83R
$$

IDZ019>023-010200-
SOUTHEAST IDAHO


CITY           SKY/WX    TMP DP  RH WIND       PRES   REMARKS
IDAHO FALLS    PTCLDY    66  20  17 SW17G26   29.74F
POCATELLO      CLEAR     62  25  24 W12       29.75F
REXBURG        PTCLDY    64  19  17 W20G29    29.72F
$$

IDZ006-010-011-018-031-032-010200-
CENTRAL IDAHO MOUNTAINS


CITY           SKY/WX    TMP DP  RH WIND       PRES   REMARKS
MCCALL         LGT SNOW  34  30  85 NW12      29.95R FOG     WCI  25
HAILEY         MOSUNNY   59  27  29 SW8G21    29.80S
STANLEY          N/A     42  34  73 SE6       29.86F
SALMON         CLOUDY   N/A N/A N/A W20G32    29.71R
CHALLIS        PTSUNNY   50  33  52 W8        29.80R
$$

IDZ002-004-006-007-026-010200-
NORTHERN IDAHO


CITY           SKY/WX    TMP DP  RH WIND       PRES   REMARKS
LEWISTON       FAIR      54  29  38 W15       29.97R
LOWELL           N/A     44  41  89 N3        30.04R
COEUR D`ALENE  FAIR      52  25  35 W22G30    29.87S
MULLAN PASS    CLOUDY    28  26  92 SW12G25   29.85S WCI  18
$$



USA.gov is the U.S. government's official web portal to all federal, state and local government web resources and services.